Regional Weather Roundup
Issued by NWS Charleston, SC

Current Version | Previous Version | Graphics & Text | Print | Product List | Glossary On
Versions: 1 2 3 4 5 6 7 8 9 10 11 12 13 14 15 16 17 18 19 20 21 22 23 24 25 26 27 28 29 30 31 32 33 34 35 36 37 38 39 40 41 42 43 44 45 46 47 48 49 50
000
ASUS42 KCHS 200925
RWRCHS

REGIONAL WEATHER ROUNDUP
NATIONAL WEATHER SERVICE CHARLESTON SC
500 AM EDT WED AUG 20 2014

NOTE: "FAIR" INDICATES FEW OR NO CLOUDS BELOW 12,000 FEET WITH NO
SIGNIFICANT WEATHER AND/OR OBSTRUCTIONS TO VISIBILITY.

NOT ALL STATIONS ARE QUALITY CONTROLLED BY THE NATIONAL
WEATHER SERVICE. USE DATA WITH CAUTION...ESPECIALLY
DEWPOINT OBSERVATIONS.

SCZ027-030-031-034>040-042>050-201000-
...SOUTH CAROLINA...

CITY           SKY/WX    TMP DP  RH WIND       PRES   REMARKS
N CHARLESTON   CLEAR     76  72  87 W6        29.91S
WATERFRONT PRK   N/A     79 N/A N/A W6          N/A
FORT JOHNSON   NOT AVBL
MOUNT PLEASANT FAIR      75  73  94 W6        29.91S
JOHNS ISLAND   SUNNY     75  73  94 CALM      29.91S
PINOPOLIS        N/A     79  73  83 W10       29.83R
MONCKS CORNER    N/A     75  75 100 SW3       29.90S
SUMMERVILLE    FAIR      73  73 100 CALM      29.91F
BEAUFORT MCAS  CLEAR     75  72  90 W7        29.92S
BEAUFORT ARPT  FAIR      73  73 100 W8        29.92R
HILTON HEAD IS CLEAR     75  73  94 SW8       29.94R
GEORGETOWN     NOT AVBL
WALTERBORO     SUNNY     73 N/A N/A W6        29.93R
ORANGEBURG     CLEAR     72  70  93 SW5       29.91S
BARNWELL       FAIR      73  72  94 SW3       29.93R
AIKEN          FAIR      72  72 100 SW3       29.95S
MANNING        PTSUNNY   73 N/A N/A CALM      29.91R
KINGSTREE      NOT AVBL
COLUMBIA       CLEAR     74  70  87 CALM      29.90S
SUMTER         CLEAR     73  71  94 SW2       29.89S
FLORENCE       CLEAR     75  73  93 CALM      29.89S
MYRTLE BEACH   PTCLDY    75  72  88 W8        29.89S
N MYRTLE BEACH PTCLDY    75  74  96 W5        29.89R

$$

GAZ063-065-086>088-099>101-113>116-118-119-134-136>141-150-201000-
...GEORGIA...

CITY           SKY/WX    TMP DP  RH WIND       PRES   REMARKS
SAVANNAH ARPT  CLEAR     73  70  90 W5        29.94S
HUNTER AAF     CLEAR     73  70  90 SW7       29.92S
FORT STEWART   CLEAR     73  69  90 SW7       29.94R
STATESBORO     NOT AVBL
SYLVANIA       SUNNY     73  73 100 CALM      29.94S
CLAXTON        FAIR      72  72 100 CALM      29.95R
THOMSON        CLEAR     75  75 100 CALM      29.98R
AUGUSTA-BUSH   CLEAR     72  70  93 CALM      29.91S
AUGUSTA-DANIEL CLEAR     76  72  87 VRB3      29.93R
SWAINSBORO     FAIR      73  73 100 W3        29.96R
VIDALIA          N/A     72  70  94 SW6       29.96R
ALMA           CLEAR     70  69  97 CALM      29.96S
WAYCROSS       PTCLDY    75  74  97 CALM      29.97R
JESUP            N/A     72  70  94 CALM      29.96S
BRUNSWICK      NOT AVBL
SAINT SIMONS   CLEAR     76  72  87 W3        29.96R

$$

SCZ027-028-034-036>038-045-046-048>050-GAZ119-141-201000-
...LAKE AND SUPPLEMENTAL COASTAL OBSERVATIONS...

STATION/POSITION TIME  TEMP    WIND        PRES    WAVE   SWELL
                       AIR SEA DIR/SP/G            HT/PER HT/PER/DIR
                 (UTC) (F)     (DEG/KT/KT) (MB)    (FT/S) (FT/S/D)
UPR LAKE MARION  NOT AVBL
WINYAH BAY       0900   76     280/  5     1012.0S
LAKE MURRAY      0900   75     280/  4/  6 1011.9F
ACE BASIN NERRS  0900   75     270/  2     1013.0S
FORT PULASKI     0900   75     240/  6/ 10 1013.9R
SAPELO ISLAND    0900   77     250/  6     1014.0S

$$

ANZ835-935-AMZ111-154-330-350-352-354-374-450-454-472-201000-
...C-MAN AND BUOY OBSERVATIONS...

STATION/POSITION TIME  TEMP    WIND        PRES    WAVE   SWELL
                       AIR SEA DIR/SP/G            HT/PER HT/PER/DIR
                 (UTC) (F)     (DEG/KT/KT) (MB)    (FT/S) (FT/S/D)
FOLLY BEACH CMAN 0900   75     270/  4/  6 1013.2S
BUOY 41004       0900   81 83  270/ 16/ 19 1011.6S   4/ 5   2/ 8
BUOY 41008       0900   82 85  280/ 16/ 17 1013.6F   3/ 4
5E ST. MARYS GA  0900      81                N/A     1/ 2
FRYING PAN BUOY  NOT AVBL
BUOY 41025       0900   79     320/  8/ 12 1010.4S   2/ 6   2/190/ 6
CAPE LOOKOUT NC  0900   79     350/  7/  7 1011.1R
BUOY 41002       0835   82 81  240/ 21/ 23 1013.8R   5/ 6   2/130/ 9
BUOY 41010       0900   84 86  200/ 14/ 17 1015.5R   3/ 4   2/140/ 8
BUOY 41012       NOT AVBL
ST AUGUSTINE FL  0900   78     280/  6/  9 1015.7R
CAPERS NEARSHORE 0800   79     290/ 16/ 17   N/A
FRIPP NEARSHORE  NOT AVBL


$$


USA.gov is the U.S. government's official web portal to all federal, state and local government web resources and services.